Time,TemperatureF,DewpointF,PressureIn,WindDirection,WindDirectionDegrees,WindSpeedMPH,WindSpeedGustMPH,Humidity,HourlyPrecipIn,Conditions,Clouds,dailyrainin,SoftwareType,DateUTC
2013-08-21 00:02:00,66.7,63.7,29.92,SSW,196,0.0,0.0,90,0.00,RA,SCT,0.00,WeatherDisplay:10.37,2013-08-21 07:02:00,
2013-08-21 00:07:00,66.6,63.3,29.92,SSW,196,0.0,0.0,89,0.00,RA,SCT,0.00,WeatherDisplay:10.37,2013-08-21 07:07:00,
2013-08-21 00:13:00,66.6,63.3,29.92,SSW,196,0.0,0.0,89,0.00,CLR,SCT,0.00,WeatherDisplay:10.37,2013-08-21 07:13:00,
2013-08-21 00:18:00,66.5,63.5,29.92,SSW,196,0.0,0.0,90,0.00,CLR,SCT,0.00,WeatherDisplay:10.37,2013-08-21 07:18:00,
2013-08-21 00:23:00,66.6,63.6,29.91,SSW,196,0.0,0.0,90,0.00,CLR,SCT,0.00,WeatherDisplay:10.37,2013-08-21 07:23:00,
2013-08-21 00:28:00,66.5,63.5,29.91,SSW,196,0.0,0.0,90,0.00,CLR,SCT,0.00,WeatherDisplay:10.37,2013-08-21 07:28:00,
2013-08-21 00:33:00,66.5,63.8,29.91,SSW,196,0.0,0.0,91,0.00,CLR,SCT,0.00,WeatherDisplay:10.37,2013-08-21 07:33:00,
2013-08-21 00:38:00,66.5,63.8,29.91,SSW,196,0.0,0.0,91,0.00,CLR,SCT,0.00,WeatherDisplay:10.37,2013-08-21 07:38:00,
2013-08-21 00:43:00,66.5,64.1,29.91,SSW,196,0.0,0.0,92,0.00,CLR,SCT,0.00,WeatherDisplay:10.37,2013-08-21 07:43:00,
2013-08-21 00:48:00,66.5,64.1,29.91,SSW,196,0.0,0.0,92,0.00,CLR,SCT,0.00,WeatherDisplay:10.37,2013-08-21 07:48:00,
2013-08-21 00:53:00,66.5,64.1,29.90,SSW,196,0.0,0.0,92,0.00,CLR,SCT,0.00,WeatherDisplay:10.37,2013-08-21 07:53:00,
2013-08-21 00:58:00,66.5,63.8,29.90,SSW,196,0.0,0.0,91,0.00,CLR,SCT,0.00,WeatherDisplay:10.37,2013-08-21 07:58:00,
2013-08-21 01:03:00,66.6,64.2,29.90,SSW,196,0.0,0.0,92,0.00,CLR,SCT,0.00,WeatherDisplay:10.37,2013-08-21 08:03:00,
2013-08-21 01:08:00,66.7,64.0,29.90,SSW,196,0.0,0.0,91,0.00,CLR,SCT,0.00,WeatherDisplay:10.37,2013-08-21 08:08:00,
2013-08-21 01:13:00,66.7,64.0,29.90,SSW,196,0.0,0.0,91,0.00,CLR,SCT,0.00,WeatherDisplay:10.37,2013-08-21 08:13:00,
2013-08-21 01:18:00,66.7,63.7,29.90,SSW,196,0.0,0.0,90,0.00,CLR,SCT,0.00,WeatherDisplay:10.37,2013-08-21 08:18:00,
2013-08-21 01:23:00,66.8,63.8,29.90,SSW,196,0.0,0.0,90,0.00,CLR,SCT,0.00,WeatherDisplay:10.37,2013-08-21 08:23:00,
2013-08-21 01:28:00,66.9,64.2,29.90,SSW,196,0.0,0.0,91,0.00,CLR,SCT,0.00,WeatherDisplay:10.37,2013-08-21 08:28:00,
2013-08-21 01:33:00,67.0,64.3,29.90,SSW,196,0.0,0.0,91,0.00,CLR,SCT,0.00,WeatherDisplay:10.37,2013-08-21 08:33:00,
2013-08-21 01:38:00,67.0,64.0,29.90,SSW,196,0.0,0.0,90,0.00,CLR,SCT,0.00,WeatherDisplay:10.37,2013-08-21 08:38:00,
2013-08-21 01:43:00,67.0,64.0,29.90,SSW,196,0.0,0.0,90,0.00,CLR,SCT,0.00,WeatherDisplay:10.37,2013-08-21 08:43:00,
2013-08-21 01:48:00,67.0,64.0,29.90,SSW,196,0.0,0.0,90,0.00,CLR,SCT,0.00,WeatherDisplay:10.37,2013-08-21 08:48:00,
2013-08-21 01:53:00,66.9,64.2,29.90,SSW,196,0.0,0.0,91,0.00,CLR,SCT,0.00,WeatherDisplay:10.37,2013-08-21 08:53:00,
2013-08-21 01:58:00,66.8,63.8,29.90,SSW,196,0.0,0.0,90,0.00,CLR,SCT,0.00,WeatherDisplay:10.37,2013-08-21 08:58:00,
2013-08-21 02:03:00,66.8,64.1,29.90,SSW,196,0.0,0.0,91,0.00,CLR,SCT,0.00,WeatherDisplay:10.37,2013-08-21 09:03:00,
2013-08-21 02:08:00,66.7,63.7,29.90,SSW,196,0.0,0.0,90,0.00,CLR,SCT,0.00,WeatherDisplay:10.37,2013-08-21 09:08:00,
2013-08-21 02:13:00,66.7,63.7,29.90,SSW,196,0.0,0.0,90,0.00,CLR,SCT,0.00,WeatherDisplay:10.37,2013-08-21 09:13:00,
2013-08-21 02:18:00,66.6,63.6,29.90,SSW,196,0.0,0.0,90,0.00,CLR,SCT,0.00,WeatherDisplay:10.37,2013-08-21 09:18:00,
2013-08-21 02:23:00,66.6,63.3,29.89,SSW,196,0.0,0.0,89,0.00,CLR,SCT,0.00,WeatherDisplay:10.37,2013-08-21 09:23:00,
2013-08-21 02:28:00,66.6,63.3,29.89,SSW,196,0.0,0.0,89,0.00,CLR,SCT,0.00,WeatherDisplay:10.37,2013-08-21 09:28:00,
2013-08-21 02:33:00,66.7,63.7,29.89,SSW,196,0.0,0.0,90,0.00,CLR,SCT,0.00,WeatherDisplay:10.37,2013-08-21 09:33:00,
2013-08-21 02:38:00,66.6,63.6,29.89,SSW,196,0.0,0.0,90,0.00,CLR,SCT,0.00,WeatherDisplay:10.37,2013-08-21 09:38:00,
2013-08-21 02:43:00,66.5,62.8,29.89,SSW,196,0.0,0.0,88,0.00,CLR,SCT,0.00,WeatherDisplay:10.37,2013-08-21 09:43:00,
2013-08-21 02:48:00,66.4,62.7,29.89,SSW,196,0.0,0.0,88,0.00,CLR,SCT,0.00,WeatherDisplay:10.37,2013-08-21 09:48:00,
2013-08-21 02:53:00,66.3,62.3,29.89,SSW,196,0.0,0.0,87,0.00,CLR,SCT,0.00,WeatherDisplay:10.37,2013-08-21 09:53:00,
2013-08-21 02:58:00,66.2,62.5,29.89,SSW,196,0.0,0.0,88,0.00,CLR,SCT,0.00,WeatherDisplay:10.37,2013-08-21 09:58:00,
2013-08-21 03:03:00,66.1,62.1,29.89,SSW,196,0.0,0.0,87,0.00,CLR,SCT,0.00,WeatherDisplay:10.37,2013-08-21 10:03:00,
2013-08-21 03:08:00,66.0,62.3,29.89,SSW,196,0.0,0.0,88,0.00,CLR,SCT,0.00,WeatherDisplay:10.37,2013-08-21 10:08:00,
2013-08-21 03:13:00,65.8,62.1,29.89,SSW,196,0.0,0.0,88,0.00,CLR,SCT,0.00,WeatherDisplay:10.37,2013-08-21 10:13:00,
2013-08-21 03:18:00,65.6,61.9,29.89,SSW,196,0.0,0.0,88,0.00,CLR,SCT,0.00,WeatherDisplay:10.37,2013-08-21 10:18:00,
2013-08-21 03:23:00,65.4,61.8,29.89,SSW,196,0.0,0.0,88,0.00,CLR,SCT,0.00,WeatherDisplay:10.37,2013-08-21 10:23:00,
2013-08-21 03:28:00,65.2,61.6,29.89,SSW,196,0.0,0.0,88,0.00,CLR,SCT,0.00,WeatherDisplay:10.37,2013-08-21 10:28:00,
2013-08-21 03:33:00,65.0,61.7,29.89,SSW,196,0.0,0.0,89,0.00,CLR,SCT,0.00,WeatherDisplay:10.37,2013-08-21 10:33:00,
2013-08-21 03:38:00,64.8,61.5,29.89,SSW,196,0.0,0.0,89,0.00,CLR,SCT,0.00,WeatherDisplay:10.37,2013-08-21 10:38:00,
2013-08-21 03:43:00,64.7,61.7,29.89,SSW,196,0.0,0.0,90,0.00,CLR,SCT,0.00,WeatherDisplay:10.37,2013-08-21 10:43:00,
2013-08-21 03:48:00,64.5,61.5,29.89,SSW,196,0.0,0.0,90,0.00,CLR,SCT,0.00,WeatherDisplay:10.37,2013-08-21 10:48:00,
2013-08-21 03:53:00,64.3,61.3,29.90,SSW,196,0.0,0.0,90,0.00,CLR,SCT,0.00,WeatherDisplay:10.37,2013-08-21 10:53:00,
2013-08-21 03:58:00,64.0,61.0,29.90,SSW,196,0.0,0.0,90,0.00,CLR,SCT,0.00,WeatherDisplay:10.37,2013-08-21 10:58:00,
2013-08-21 04:03:00,63.8,61.1,29.90,SSW,196,0.0,0.0,91,0.00,CLR,SCT,0.00,WeatherDisplay:10.37,2013-08-21 11:03:00,
2013-08-21 04:08:00,63.6,60.6,29.90,SSW,196,0.0,0.0,90,0.00,CLR,SCT,0.00,WeatherDisplay:10.37,2013-08-21 11:08:00,
2013-08-21 04:13:00,63.4,60.7,29.90,SSW,196,0.0,0.0,91,0.00,CLR,SCT,0.00,WeatherDisplay:10.37,2013-08-21 11:13:00,
2013-08-21 04:18:00,63.4,60.7,29.90,SSW,196,0.0,0.0,91,0.00,CLR,SCT,0.00,WeatherDisplay:10.37,2013-08-21 11:18:00,
2013-08-21 04:23:00,63.2,60.2,29.90,SSW,196,0.0,0.0,90,0.00,CLR,SCT,0.00,WeatherDisplay:10.37,2013-08-21 11:23:00,
2013-08-21 04:28:00,63.1,60.1,29.90,SSW,196,0.0,0.0,90,0.00,CLR,SCT,0.00,WeatherDisplay:10.37,2013-08-21 11:28:00,
2013-08-21 04:33:00,63.0,59.7,29.90,SSW,196,0.0,0.0,89,0.00,CLR,SCT,0.00,WeatherDisplay:10.37,2013-08-21 11:33:00,
2013-08-21 04:38:00,63.0,59.4,29.91,SSW,196,0.0,0.0,88,0.00,CLR,SCT,0.00,WeatherDisplay:10.37,2013-08-21 11:38:00,
2013-08-21 04:43:00,62.9,59.3,29.91,SSW,196,0.0,0.0,88,0.00,CLR,SCT,0.00,WeatherDisplay:10.37,2013-08-21 11:43:00,
2013-08-21 04:48:00,62.9,59.0,29.91,SSW,196,0.0,0.0,87,0.00,CLR,SCT,0.00,WeatherDisplay:10.37,2013-08-21 11:48:00,
2013-08-21 04:53:00,62.9,59.0,29.91,SSW,196,0.0,0.0,87,0.00,CLR,SCT,0.00,WeatherDisplay:10.37,2013-08-21 11:53:00,
2013-08-21 04:58:00,62.9,59.0,29.91,SSW,196,0.0,0.0,87,0.00,CLR,SCT,0.00,WeatherDisplay:10.37,2013-08-21 11:58:00,
2013-08-21 05:03:00,63.0,59.1,29.91,SSW,196,0.0,0.0,87,0.00,CLR,SCT,0.00,WeatherDisplay:10.37,2013-08-21 12:03:00,
2013-08-21 05:08:00,63.0,58.7,29.91,SSW,196,0.0,0.0,86,0.00,CLR,SCT,0.00,WeatherDisplay:10.37,2013-08-21 12:08:00,
2013-08-21 05:13:00,63.0,58.7,29.91,SSW,196,0.0,0.0,86,0.00,CLR,SCT,0.00,WeatherDisplay:10.37,2013-08-21 12:13:00,
2013-08-21 05:18:00,63.0,58.4,29.91,SSW,196,0.0,0.0,85,0.00,CLR,SCT,0.00,WeatherDisplay:10.37,2013-08-21 12:18:00,
2013-08-21 05:23:00,62.9,58.6,29.92,SSW,196,0.0,0.0,86,0.00,CLR,SCT,0.00,WeatherDisplay:10.37,2013-08-21 12:23:00,
2013-08-21 05:28:00,62.9,58.6,29.92,SSW,196,0.0,0.0,86,0.00,CLR,SCT,0.00,WeatherDisplay:10.37,2013-08-21 12:28:00,
2013-08-21 05:33:00,63.0,58.4,29.91,SSW,196,0.0,0.0,85,0.00,CLR,SCT,0.00,WeatherDisplay:10.37,2013-08-21 12:33:00,
2013-08-21 05:38:00,63.2,58.6,29.91,SSW,196,0.0,0.0,85,0.00,CLR,SCT,0.00,WeatherDisplay:10.37,2013-08-21 12:38:00,
2013-08-21 05:43:00,63.4,58.5,29.91,SSW,196,0.0,0.0,84,0.00,CLR,SCT,0.00,WeatherDisplay:10.37,2013-08-21 12:43:00,
2013-08-21 05:48:00,63.5,58.6,29.91,SSW,196,0.0,0.0,84,0.00,CLR,SCT,0.00,WeatherDisplay:10.37,2013-08-21 12:48:00,
2013-08-21 05:53:00,63.6,59.0,29.91,SSW,196,0.0,0.0,85,0.00,CLR,SCT,0.00,WeatherDisplay:10.37,2013-08-21 12:53:00,
2013-08-21 05:58:00,63.7,59.1,29.92,SSW,196,0.0,0.0,85,0.00,CLR,SCT,0.00,WeatherDisplay:10.37,2013-08-21 12:58:00,
2013-08-21 06:03:00,63.8,59.5,29.92,SSW,196,0.0,0.0,86,0.00,CLR,SCT,0.00,WeatherDisplay:10.37,2013-08-21 13:03:00,
2013-08-21 06:08:00,63.8,59.5,29.92,SSW,196,0.0,0.0,86,0.00,CLR,SCT,0.00,WeatherDisplay:10.37,2013-08-21 13:08:00,
2013-08-21 06:13:00,63.9,59.6,29.92,SSW,196,0.0,0.0,86,0.00,CLR,SCT,0.00,WeatherDisplay:10.37,2013-08-21 13:13:00,
2013-08-21 06:18:00,64.2,60.6,29.92,SSW,196,0.0,0.0,88,0.00,CLR,SCT,0.00,WeatherDisplay:10.37,2013-08-21 13:18:00,
2013-08-21 06:23:00,64.6,61.6,29.92,SSW,196,0.0,0.0,90,0.00,CLR,SCT,0.00,WeatherDisplay:10.37,2013-08-21 13:23:00,
2013-08-21 06:28:00,65.2,61.6,29.92,SSW,196,0.0,0.0,88,0.00,CLR,SCT,0.00,WeatherDisplay:10.37,2013-08-21 13:28:00,
2013-08-21 06:33:00,66.1,61.5,29.92,SSW,196,0.0,0.0,85,0.00,CLR,SCT,0.00,WeatherDisplay:10.37,2013-08-21 13:33:00,
2013-08-21 06:38:00,66.7,61.7,29.93,SSW,196,0.0,0.0,84,0.00,CLR,SCT,0.00,WeatherDisplay:10.37,2013-08-21 13:38:00,
2013-08-21 06:43:00,67.1,61.4,29.93,SSW,196,0.0,0.0,82,0.00,CLR,SCT,0.00,WeatherDisplay:10.37,2013-08-21 13:43:00,
2013-08-21 06:50:00,67.4,62.1,29.93,SSW,212,0.0,0.0,83,0.00,CLR,SCT,0.00,WeatherDisplay:10.37,2013-08-21 13:50:00,
2013-08-21 06:55:00,67.6,62.6,29.93,SSW,212,0.0,0.0,84,0.00,CLR,SCT,0.00,WeatherDisplay:10.37,2013-08-21 13:55:00,
2013-08-21 07:00:00,67.7,63.4,29.93,SSW,212,0.0,0.0,86,0.00,CLR,SCT,0.00,WeatherDisplay:10.37,2013-08-21 14:00:00,
2013-08-21 07:05:00,67.8,62.4,29.93,SSW,212,0.0,0.0,83,0.00,CLR,SCT,0.00,WeatherDisplay:10.37,2013-08-21 14:05:00,
2013-08-21 07:10:00,68.1,62.4,29.94,SSW,212,0.0,0.0,82,0.00,CLR,SCT,0.00,WeatherDisplay:10.37,2013-08-21 14:10:00,
2013-08-21 07:15:00,68.3,62.2,29.94,SSW,212,0.0,0.0,81,0.00,CLR,SCT,0.00,WeatherDisplay:10.37,2013-08-21 14:15:00,
2013-08-21 07:20:00,68.5,62.4,29.94,SSW,212,0.0,0.0,81,0.00,CLR,SCT,0.00,WeatherDisplay:10.37,2013-08-21 14:20:00,
2013-08-21 07:25:00,68.8,63.1,29.94,SSW,212,0.0,0.0,82,0.00,CLR,SCT,0.00,WeatherDisplay:10.37,2013-08-21 14:25:00,
2013-08-21 07:30:00,69.2,63.1,29.94,SSW,212,0.0,0.0,81,0.00,CLR,SCT,0.00,WeatherDisplay:10.37,2013-08-21 14:30:00,
2013-08-21 07:35:00,69.6,63.2,29.94,NW,307,0.0,0.0,80,0.00,CLR,SCT,0.00,WeatherDisplay:10.37,2013-08-21 14:35:00,
2013-08-21 07:40:00,70.3,62.7,29.94,NW,307,0.0,0.0,77,0.00,CLR,SCT,0.00,WeatherDisplay:10.37,2013-08-21 14:40:00,
2013-08-21 07:45:00,71.1,60.4,29.95,NW,307,0.0,0.0,69,0.00,CLR,SCT,0.00,WeatherDisplay:10.37,2013-08-21 14:45:00,
2013-08-21 07:50:00,71.9,60.3,29.95,NW,307,0.0,0.0,67,0.00,CLR,SCT,0.00,WeatherDisplay:10.37,2013-08-21 14:50:00,
2013-08-21 07:55:00,72.7,60.3,29.95,NW,307,0.0,0.0,65,0.00,CLR,SCT,0.00,WeatherDisplay:10.37,2013-08-21 14:55:00,
2013-08-21 08:00:00,73.5,60.1,29.94,NW,307,0.0,1.2,63,0.00,CLR,SCT,0.00,WeatherDisplay:10.37,2013-08-21 15:00:00,
2013-08-21 08:05:00,74.1,61.1,29.94,NW,313,0.0,3.5,64,0.00,CLR,SCT,0.00,WeatherDisplay:10.37,2013-08-21 15:05:00,
2013-08-21 08:10:00,74.7,58.5,29.94,NW,313,0.0,0.0,57,0.00,CLR,SCT,0.00,WeatherDisplay:10.37,2013-08-21 15:10:00,
2013-08-21 08:15:00,75.3,59.0,29.94,NW,317,0.2,3.5,57,0.00,CLR,SCT,0.00,WeatherDisplay:10.37,2013-08-21 15:15:00,
2013-08-21 08:20:00,75.8,60.0,29.94,NW,316,0.1,0.0,58,0.00,CLR,SCT,0.00,WeatherDisplay:10.37,2013-08-21 15:20:00,
2013-08-21 08:25:00,76.2,59.4,29.94,NW,318,0.2,0.0,56,0.00,CLR,SCT,0.00,WeatherDisplay:10.37,2013-08-21 15:25:00,
2013-08-21 08:30:00,76.5,58.6,29.94,NW,318,0.1,0.0,54,0.00,CLR,SCT,0.00,WeatherDisplay:10.37,2013-08-21 15:30:00,
2013-08-21 08:35:00,76.9,59.0,29.94,NW,318,0.0,0.0,54,0.00,CLR,SCT,0.00,WeatherDisplay:10.37,2013-08-21 15:35:00,
2013-08-21 08:40:00,77.3,57.8,29.94,NW,318,0.0,0.0,51,0.00,CLR,SCT,0.00,WeatherDisplay:10.37,2013-08-21 15:40:00,
2013-08-21 08:45:00,77.6,59.1,29.94,NW,320,0.1,1.2,53,0.00,CLR,SCT,0.00,WeatherDisplay:10.37,2013-08-21 15:45:00,
2013-08-21 08:50:00,77.9,58.9,29.94,NW,320,0.0,0.0,52,0.00,CLR,SCT,0.00,WeatherDisplay:10.37,2013-08-21 15:50:00,
2013-08-21 08:55:00,78.3,57.6,29.94,NW,320,0.0,0.0,49,0.00,CLR,SCT,0.00,WeatherDisplay:10.37,2013-08-21 15:55:00,
2013-08-21 09:00:00,78.8,58.6,29.94,NW,320,0.1,1.2,50,0.00,CLR,SCT,0.00,WeatherDisplay:10.37,2013-08-21 16:00:00,
2013-08-21 09:05:00,78.9,59.2,29.95,NW,320,0.0,0.0,51,0.00,CLR,SCT,0.00,WeatherDisplay:10.37,2013-08-21 16:05:00,
2013-08-21 09:10:00,78.6,59.5,29.95,ENE,65,0.7,1.2,52,0.00,CLR,SCT,0.00,WeatherDisplay:10.37,2013-08-21 16:10:00,
2013-08-21 09:15:00,78.3,61.3,29.95,ENE,65,0.0,0.0,56,0.00,CLR,SCT,0.00,WeatherDisplay:10.37,2013-08-21 16:15:00,
2013-08-21 09:20:00,78.2,61.2,29.95,ENE,65,0.1,1.2,56,0.00,CLR,SCT,0.00,WeatherDisplay:10.37,2013-08-21 16:20:00,
2013-08-21 09:25:00,78.3,61.3,29.95,ENE,65,0.0,1.2,56,0.00,CLR,SCT,0.00,WeatherDisplay:10.37,2013-08-21 16:25:00,
2013-08-21 09:30:00,78.6,62.6,29.95,ENE,65,0.0,3.5,58,0.00,CLR,SCT,0.00,WeatherDisplay:10.37,2013-08-21 16:30:00,
2013-08-21 09:35:00,79.1,61.0,29.95,ENE,65,0.0,0.0,54,0.00,CLR,SCT,0.00,WeatherDisplay:10.37,2013-08-21 16:35:00,
2013-08-21 09:40:00,79.6,57.6,29.95,ENE,58,0.1,1.2,47,0.00,CLR,SCT,0.00,WeatherDisplay:10.37,2013-08-21 16:40:00,
2013-08-21 09:45:00,80.2,59.3,29.95,ENE,58,0.7,3.5,49,0.00,CLR,SCT,0.00,WeatherDisplay:10.37,2013-08-21 16:45:00,
2013-08-21 09:50:00,80.5,59.6,29.95,ENE,58,0.0,0.0,49,0.00,CLR,SCT,0.00,WeatherDisplay:10.37,2013-08-21 16:50:00,
2013-08-21 09:55:00,81.0,58.3,29.95,ENE,57,0.0,0.0,46,0.00,CLR,SCT,0.00,WeatherDisplay:10.37,2013-08-21 16:55:00,
2013-08-21 10:00:00,81.3,59.1,29.95,NNW,340,0.0,1.2,47,0.00,CLR,SCT,0.00,WeatherDisplay:10.37,2013-08-21 17:00:00,
2013-08-21 10:05:00,81.6,59.4,29.95,North,357,0.0,0.0,47,0.00,CLR,SCT,0.00,WeatherDisplay:10.37,2013-08-21 17:05:00,
2013-08-21 10:10:00,82.3,57.6,29.95,North,357,0.0,0.0,43,0.00,CLR,SCT,0.00,WeatherDisplay:10.37,2013-08-21 17:10:00,
2013-08-21 10:15:00,82.9,58.7,29.95,NNE,17,0.9,3.5,44,0.00,CLR,SCT,0.00,WeatherDisplay:10.37,2013-08-21 17:15:00,
2013-08-21 10:20:00,83.1,57.0,29.95,NE,53,0.0,1.2,41,0.00,CLR,SCT,0.00,WeatherDisplay:10.37,2013-08-21 17:20:00,
2013-08-21 10:25:00,83.0,58.2,29.95,NE,53,0.0,0.0,43,0.00,CLR,SCT,0.00,WeatherDisplay:10.37,2013-08-21 17:25:00,
2013-08-21 10:30:00,83.3,59.1,29.95,NE,53,0.0,0.0,44,0.00,CLR,SCT,0.00,WeatherDisplay:10.37,2013-08-21 17:30:00,
2013-08-21 10:35:00,83.6,58.1,29.95,NE,53,0.1,1.2,42,0.00,CLR,SCT,0.00,WeatherDisplay:10.37,2013-08-21 17:35:00,
2013-08-21 10:40:00,83.3,56.5,29.95,ENE,71,0.0,0.0,40,0.00,CLR,SCT,0.00,WeatherDisplay:10.37,2013-08-21 17:40:00,
2013-08-21 10:45:00,83.2,57.1,29.95,ENE,70,0.0,1.2,41,0.00,CLR,SCT,0.00,WeatherDisplay:10.37,2013-08-21 17:45:00,
2013-08-21 10:50:00,83.4,58.6,29.95,ENE,67,0.0,0.0,43,0.00,CLR,SCT,0.00,WeatherDisplay:10.37,2013-08-21 17:50:00,
2013-08-21 10:55:00,83.8,58.9,29.95,ENE,69,0.4,3.0,43,0.00,CLR,SCT,0.00,WeatherDisplay:10.37,2013-08-21 17:55:00,
2013-08-21 11:00:00,83.9,57.7,29.95,NE,35,2.6,6.9,41,0.00,CLR,SCT,0.00,WeatherDisplay:10.37,2013-08-21 18:00:00,
2013-08-21 11:05:00,83.6,56.7,29.95,ENE,75,0.1,1.2,40,0.00,CLR,SCT,0.00,WeatherDisplay:10.37,2013-08-21 18:05:00,
2013-08-21 11:10:00,83.9,57.7,29.95,ENE,75,0.0,0.0,41,0.00,CLR,SCT,0.00,WeatherDisplay:10.37,2013-08-21 18:10:00,
2013-08-21 11:15:00,84.6,56.9,29.95,ENE,71,1.6,4.6,39,0.00,CLR,SCT,0.00,WeatherDisplay:10.37,2013-08-21 18:15:00,
2013-08-21 11:20:00,85.0,58.0,29.94,ENE,71,0.0,0.0,40,0.00,CLR,SCT,0.00,WeatherDisplay:10.37,2013-08-21 18:20:00,
2013-08-21 11:25:00,84.8,58.5,29.95,NNE,17,0.2,2.3,41,0.00,CLR,SCT,0.00,WeatherDisplay:10.37,2013-08-21 18:25:00,
2013-08-21 11:30:00,84.9,57.9,29.95,ENE,61,1.2,8.1,40,0.00,CLR,SCT,0.00,WeatherDisplay:10.37,2013-08-21 18:30:00,
2013-08-21 11:35:00,84.7,57.7,29.94,ENE,71,0.0,1.2,40,0.00,CLR,SCT,0.00,WeatherDisplay:10.37,2013-08-21 18:35:00,
2013-08-21 11:40:00,84.7,59.7,29.94,ENE,61,0.0,1.2,43,0.00,CLR,SCT,0.00,WeatherDisplay:10.37,2013-08-21 18:40:00,
2013-08-21 11:45:00,85.0,58.7,29.94,ENE,61,0.0,0.0,41,0.00,CLR,SCT,0.00,WeatherDisplay:10.37,2013-08-21 18:45:00,
2013-08-21 11:50:00,85.3,59.6,29.94,ENE,61,0.2,1.2,42,0.00,CLR,SCT,0.00,WeatherDisplay:10.37,2013-08-21 18:50:00,
2013-08-21 11:55:00,85.4,59.0,29.94,ENE,70,1.6,4.6,41,0.00,CLR,SCT,0.00,WeatherDisplay:10.37,2013-08-21 18:55:00,
2013-08-21 12:00:00,85.4,57.6,29.93,ENE,65,0.1,3.0,39,0.00,CLR,SCT,0.00,WeatherDisplay:10.37,2013-08-21 19:00:00,
2013-08-21 12:05:00,85.6,58.5,29.93,East,79,0.0,1.0,40,0.00,CLR,SCT,0.00,WeatherDisplay:10.37,2013-08-21 19:05:00,
2013-08-21 12:10:00,86.0,57.4,29.93,ENE,66,1.9,4.6,38,0.00,CLR,SCT,0.00,WeatherDisplay:10.37,2013-08-21 19:10:00,
2013-08-21 12:15:00,85.8,59.4,29.93,ENE,61,2.2,4.0,41,0.00,CLR,SCT,0.00,WeatherDisplay:10.37,2013-08-21 19:15:00,
2013-08-21 12:20:00,85.6,61.2,29.93,East,87,0.2,1.2,44,0.00,CLR,SCT,0.00,WeatherDisplay:10.37,2013-08-21 19:20:00,
2013-08-21 12:25:00,85.9,58.1,29.93,South,173,0.8,3.5,39,0.00,CLR,SCT,0.00,WeatherDisplay:10.37,2013-08-21 19:25:00,
2013-08-21 12:30:00,86.0,58.2,29.92,ENE,78,0.0,0.0,39,0.00,CLR,SCT,0.00,WeatherDisplay:10.37,2013-08-21 19:30:00,
2013-08-21 12:35:00,86.3,59.1,29.92,ENE,73,0.0,0.0,40,0.00,CLR,SCT,0.00,WeatherDisplay:10.37,2013-08-21 19:35:00,
2013-08-21 12:40:00,86.8,58.9,29.92,ENE,77,0.9,3.5,39,0.00,CLR,SCT,0.00,WeatherDisplay:10.37,2013-08-21 19:40:00,
2013-08-21 12:45:00,86.8,58.1,29.92,ENE,68,0.5,4.6,38,0.00,CLR,SCT,0.00,WeatherDisplay:10.37,2013-08-21 19:45:00,
2013-08-21 12:50:00,86.5,55.6,29.92,ENE,68,0.1,0.0,35,0.00,CLR,SCT,0.00,WeatherDisplay:10.37,2013-08-21 19:50:00,
2013-08-21 12:55:00,86.4,56.3,29.92,NNW,348,0.0,1.2,36,0.00,CLR,SCT,0.00,WeatherDisplay:10.37,2013-08-21 19:55:00,
2013-08-21 13:00:00,86.6,58.0,29.92,NE,55,2.2,4.6,38,0.00,CLR,SCT,0.00,WeatherDisplay:10.37,2013-08-21 20:00:00,
2013-08-21 13:05:00,86.8,58.1,29.92,ENE,63,0.9,4.6,38,0.00,CLR,SCT,0.00,WeatherDisplay:10.37,2013-08-21 20:05:00,
2013-08-21 13:10:00,87.1,58.4,29.92,SSW,202,0.5,3.5,38,0.00,CLR,SCT,0.00,WeatherDisplay:10.37,2013-08-21 20:10:00,
2013-08-21 13:15:00,87.5,57.3,29.91,South,180,0.0,1.2,36,0.00,CLR,SCT,0.00,WeatherDisplay:10.37,2013-08-21 20:15:00,
2013-08-21 13:20:00,87.2,56.2,29.91,South,184,0.1,0.0,35,0.00,CLR,SCT,0.00,WeatherDisplay:10.37,2013-08-21 20:20:00,
2013-08-21 13:25:00,87.1,58.4,29.91,ESE,103,0.5,1.2,38,0.00,CLR,SCT,0.00,WeatherDisplay:10.37,2013-08-21 20:25:00,
2013-08-21 13:30:00,86.7,56.6,29.91,ESE,103,0.1,1.2,36,0.00,CLR,SCT,0.00,WeatherDisplay:10.37,2013-08-21 20:30:00,
2013-08-21 13:35:00,86.7,58.1,29.91,East,92,1.3,5.0,38,0.00,CLR,SCT,0.00,WeatherDisplay:10.37,2013-08-21 20:35:00,
2013-08-21 13:40:00,86.9,56.7,29.90,NW,317,0.0,0.0,36,0.00,CLR,SCT,0.00,WeatherDisplay:10.37,2013-08-21 20:40:00,
2013-08-21 13:45:00,87.1,57.7,29.90,NE,39,0.1,2.0,37,0.00,CLR,SCT,0.00,WeatherDisplay:10.37,2013-08-21 20:45:00,
2013-08-21 13:50:00,86.7,58.8,29.90,ENE,73,0.1,1.2,39,0.00,CLR,SCT,0.00,WeatherDisplay:10.37,2013-08-21 20:50:00,
2013-08-21 13:55:00,86.4,59.9,29.90,ENE,73,0.0,0.0,41,0.00,CLR,SCT,0.00,WeatherDisplay:10.37,2013-08-21 20:55:00,
2013-08-21 14:00:00,86.2,58.3,29.90,SSW,203,0.1,1.2,39,0.00,CLR,SCT,0.00,WeatherDisplay:10.37,2013-08-21 21:00:00,
2013-08-21 14:05:00,86.0,58.9,29.90,SSW,203,0.0,0.0,40,0.00,CLR,SCT,0.00,WeatherDisplay:10.37,2013-08-21 21:05:00,
2013-08-21 14:10:00,86.0,56.7,29.90,SSW,211,0.0,0.0,37,0.00,CLR,SCT,0.00,WeatherDisplay:10.37,2013-08-21 21:10:00,
2013-08-21 14:15:00,85.9,56.6,29.89,NNW,333,0.0,0.0,37,0.00,CLR,SCT,0.00,WeatherDisplay:10.37,2013-08-21 21:15:00,
2013-08-21 14:20:00,85.9,57.3,29.89,NW,317,0.1,1.2,38,0.00,CLR,SCT,0.00,WeatherDisplay:10.37,2013-08-21 21:20:00,
2013-08-21 14:25:00,85.9,59.5,29.89,NW,317,0.0,1.2,41,0.00,CLR,SCT,0.00,WeatherDisplay:10.37,2013-08-21 21:25:00,
2013-08-21 14:30:00,85.8,58.7,29.89,NW,317,0.5,2.0,40,0.00,CLR,SCT,0.00,WeatherDisplay:10.37,2013-08-21 21:30:00,
2013-08-21 14:35:00,85.8,58.0,29.88,NW,321,0.2,1.2,39,0.00,CLR,SCT,0.00,WeatherDisplay:10.37,2013-08-21 21:35:00,
2013-08-21 14:40:00,86.3,57.0,29.88,North,352,0.0,3.5,37,0.00,CLR,SCT,0.00,WeatherDisplay:10.37,2013-08-21 21:40:00,
2013-08-21 14:45:00,86.8,56.6,29.88,NNE,28,0.2,0.0,36,0.00,CLR,SCT,0.00,WeatherDisplay:10.37,2013-08-21 21:45:00,
2013-08-21 14:50:00,86.7,58.1,29.88,SSE,167,0.0,1.2,38,0.00,CLR,SCT,0.00,WeatherDisplay:10.37,2013-08-21 21:50:00,
2013-08-21 14:55:00,86.4,59.9,29.88,North,2,1.7,2.3,41,0.00,CLR,SCT,0.00,WeatherDisplay:10.37,2013-08-21 21:55:00,
2013-08-21 15:00:00,86.5,60.0,29.88,NE,40,4.7,5.8,41,0.00,CLR,SCT,0.00,WeatherDisplay:10.37,2013-08-21 22:00:00,
2013-08-21 15:05:00,87.1,59.8,29.88,ENE,63,3.5,4.6,40,0.00,CLR,SCT,0.00,WeatherDisplay:10.37,2013-08-21 22:05:00,
2013-08-21 15:10:00,86.6,58.0,29.88,NNE,30,4.2,9.2,38,0.00,CLR,SCT,0.00,WeatherDisplay:10.37,2013-08-21 22:10:00,
2013-08-21 15:15:00,85.8,59.4,29.88,North,357,1.1,5.0,41,0.00,CLR,SCT,0.00,WeatherDisplay:10.37,2013-08-21 22:15:00,
2013-08-21 15:20:00,85.5,59.1,29.87,North,7,0.5,1.2,41,0.00,CLR,SCT,0.00,WeatherDisplay:10.37,2013-08-21 22:20:00,
2013-08-21 15:25:00,85.9,60.1,29.87,NNE,15,2.7,4.6,42,0.00,CLR,SCT,0.00,WeatherDisplay:10.37,2013-08-21 22:25:00,
2013-08-21 15:30:00,86.2,58.3,29.87,NNW,334,3.0,6.9,39,0.00,CLR,SCT,0.00,WeatherDisplay:10.37,2013-08-21 22:30:00,
2013-08-21 15:35:00,85.7,58.6,29.87,NE,36,3.7,8.1,40,0.00,CLR,SCT,0.00,WeatherDisplay:10.37,2013-08-21 22:35:00,
2013-08-21 15:40:00,86.0,58.2,29.87,NNE,12,2.4,5.8,39,0.00,CLR,SCT,0.00,WeatherDisplay:10.37,2013-08-21 22:40:00,
2013-08-21 15:45:00,86.4,58.5,29.87,NNE,26,1.4,8.1,39,0.00,CLR,SCT,0.00,WeatherDisplay:10.37,2013-08-21 22:45:00,
2013-08-21 15:50:00,86.6,59.4,29.87,NE,50,3.1,5.8,40,0.00,CLR,SCT,0.00,WeatherDisplay:10.37,2013-08-21 22:50:00,
2013-08-21 15:55:00,86.2,58.3,29.87,ENE,57,1.8,5.8,39,0.00,CLR,SCT,0.00,WeatherDisplay:10.37,2013-08-21 22:55:00,
2013-08-21 16:00:00,85.6,57.8,29.87,ENE,63,2.2,5.8,39,0.00,CLR,SCT,0.00,WeatherDisplay:10.37,2013-08-21 23:00:00,
2013-08-21 16:05:00,85.3,57.5,29.87,NE,44,3.1,4.6,39,0.00,CLR,SCT,0.00,WeatherDisplay:10.37,2013-08-21 23:05:00,
2013-08-21 16:10:00,85.0,58.0,29.87,ENE,70,2.5,3.5,40,0.00,CLR,SCT,0.00,WeatherDisplay:10.37,2013-08-21 23:10:00,
2013-08-21 16:15:00,84.7,57.0,29.87,NNE,17,0.0,1.2,39,0.00,CLR,SCT,0.00,WeatherDisplay:10.37,2013-08-21 23:15:00,
2013-08-21 16:20:00,84.8,57.1,29.86,NNE,29,0.0,0.0,39,0.00,CLR,SCT,0.00,WeatherDisplay:10.37,2013-08-21 23:20:00,
2013-08-21 16:25:00,84.9,56.5,29.86,NNW,331,0.8,3.5,38,0.00,CLR,SCT,0.00,WeatherDisplay:10.37,2013-08-21 23:25:00,
2013-08-21 16:30:00,84.7,57.0,29.86,NNW,332,0.0,1.2,39,0.00,CLR,SCT,0.00,WeatherDisplay:10.37,2013-08-21 23:30:00,
2013-08-21 16:35:00,84.5,57.5,29.86,NE,35,0.0,0.0,40,0.00,CLR,SCT,0.00,WeatherDisplay:10.37,2013-08-21 23:35:00,
2013-08-21 16:40:00,84.3,58.0,29.86,NNW,338,0.0,1.2,41,0.00,CLR,SCT,0.00,WeatherDisplay:10.37,2013-08-21 23:40:00,
2013-08-21 16:45:00,84.1,57.2,29.86,NNW,338,0.0,1.2,40,0.00,CLR,SCT,0.00,WeatherDisplay:10.37,2013-08-21 23:45:00,
2013-08-21 16:50:00,84.0,58.4,29.86,NNW,338,0.0,0.0,42,0.00,CLR,SCT,0.00,WeatherDisplay:10.37,2013-08-21 23:50:00,
2013-08-21 16:55:00,84.1,58.5,29.86,NNW,338,0.0,0.0,42,0.00,CLR,SCT,0.00,WeatherDisplay:10.37,2013-08-21 23:55:00,
2013-08-21 17:00:00,84.0,58.4,29.86,NNW,338,0.0,0.0,42,0.00,CLR,SCT,0.00,WeatherDisplay:10.37,2013-08-22 00:00:00,
2013-08-21 17:05:00,83.7,58.2,29.86,NNW,338,0.0,0.0,42,0.00,CLR,SCT,0.00,WeatherDisplay:10.37,2013-08-22 00:05:00,
2013-08-21 17:10:00,83.5,60.5,29.86,NNW,338,0.0,0.0,46,0.00,CLR,SCT,0.00,WeatherDisplay:10.37,2013-08-22 00:10:00,
2013-08-21 17:15:00,83.2,59.6,29.86,SW,215,0.0,0.0,45,0.00,CLR,SCT,0.00,WeatherDisplay:10.37,2013-08-22 00:15:00,
2013-08-21 17:20:00,82.9,59.4,29.86,SW,219,0.0,1.2,45,0.00,CLR,SCT,0.00,WeatherDisplay:10.37,2013-08-22 00:20:00,
2013-08-21 17:25:00,82.5,59.6,29.86,SW,219,0.0,1.2,46,0.00,CLR,SCT,0.00,WeatherDisplay:10.37,2013-08-22 00:25:00,
2013-08-21 17:30:00,82.2,60.0,29.86,SW,219,0.0,0.0,47,0.00,CLR,SCT,0.00,WeatherDisplay:10.37,2013-08-22 00:30:00,
2013-08-21 17:35:00,82.1,59.9,29.86,SW,219,0.1,0.0,47,0.00,CLR,SCT,0.00,WeatherDisplay:10.37,2013-08-22 00:35:00,
2013-08-21 17:40:00,81.9,60.3,29.86,SW,219,0.0,0.0,48,0.00,CLR,SCT,0.00,WeatherDisplay:10.37,2013-08-22 00:40:00,
2013-08-21 17:45:00,81.7,60.1,29.86,SW,219,0.0,0.0,48,0.00,CLR,SCT,0.00,WeatherDisplay:10.37,2013-08-22 00:45:00,
2013-08-21 17:50:00,81.5,59.9,29.87,SW,219,0.0,0.0,48,0.00,CLR,SCT,0.00,WeatherDisplay:10.37,2013-08-22 00:50:00,
2013-08-21 17:55:00,81.4,60.4,29.87,SW,219,0.0,0.0,49,0.00,CLR,SCT,0.00,WeatherDisplay:10.37,2013-08-22 00:55:00,
2013-08-21 18:00:00,81.3,60.9,29.87,SW,219,0.0,0.0,50,0.00,CLR,SCT,0.00,WeatherDisplay:10.37,2013-08-22 01:00:00,
2013-08-21 18:05:00,81.2,61.4,29.87,SW,219,0.0,0.0,51,0.00,CLR,SCT,0.00,WeatherDisplay:10.37,2013-08-22 01:05:00,
2013-08-21 18:10:00,81.0,60.6,29.87,SW,219,0.0,0.0,50,0.00,CLR,SCT,0.00,WeatherDisplay:10.37,2013-08-22 01:10:00,
2013-08-21 18:15:00,80.6,60.2,29.87,NW,311,0.2,1.2,50,0.00,CLR,SCT,0.00,WeatherDisplay:10.37,2013-08-22 01:15:00,
2013-08-21 18:20:00,80.2,59.3,29.87,NW,311,0.0,0.0,49,0.00,CLR,SCT,0.00,WeatherDisplay:10.37,2013-08-22 01:20:00,
2013-08-21 18:25:00,79.9,59.6,29.87,NW,311,0.0,0.0,50,0.00,CLR,SCT,0.00,WeatherDisplay:10.37,2013-08-22 01:25:00,
2013-08-21 18:30:00,79.6,59.3,29.88,NW,311,0.0,0.0,50,0.00,CLR,SCT,0.00,WeatherDisplay:10.37,2013-08-22 01:30:00,
2013-08-21 18:35:00,79.4,59.1,29.88,NW,311,0.0,0.0,50,0.00,CLR,SCT,0.00,WeatherDisplay:10.37,2013-08-22 01:35:00,
2013-08-21 18:40:00,79.1,58.9,29.88,WNW,303,0.9,1.2,50,0.00,CLR,SCT,0.00,WeatherDisplay:10.37,2013-08-22 01:40:00,
2013-08-21 18:45:00,78.9,58.7,29.88,West,281,0.0,3.5,50,0.00,CLR,SCT,0.00,WeatherDisplay:10.37,2013-08-22 01:45:00,
2013-08-21 18:50:00,78.7,58.5,29.88,WNW,302,0.0,3.5,50,0.00,CLR,SCT,0.00,WeatherDisplay:10.37,2013-08-22 01:50:00,
2013-08-21 18:55:00,78.5,57.7,29.89,NW,309,0.0,1.2,49,0.00,CLR,SCT,0.00,WeatherDisplay:10.37,2013-08-22 01:55:00,
2013-08-21 19:00:00,78.4,57.1,29.89,WNW,302,1.9,5.8,48,0.00,CLR,SCT,0.00,WeatherDisplay:10.37,2013-08-22 02:00:00,
2013-08-21 19:05:00,78.3,57.0,29.89,NW,311,1.1,3.5,48,0.00,CLR,SCT,0.00,WeatherDisplay:10.37,2013-08-22 02:05:00,
2013-08-21 19:10:00,78.1,57.4,29.89,NW,308,1.5,6.9,49,0.00,CLR,SCT,0.00,WeatherDisplay:10.37,2013-08-22 02:10:00,
2013-08-21 19:15:00,77.9,58.3,29.89,NW,317,1.5,5.8,51,0.00,CLR,SCT,0.00,WeatherDisplay:10.37,2013-08-22 02:15:00,
2013-08-21 19:20:00,77.4,57.9,29.90,NW,304,2.6,5.8,51,0.00,CLR,SCT,0.00,WeatherDisplay:10.37,2013-08-22 02:20:00,
2013-08-21 19:25:00,76.9,58.5,29.90,NW,311,0.0,2.3,53,0.00,CLR,SCT,0.00,WeatherDisplay:10.37,2013-08-22 02:25:00,
2013-08-21 19:31:00,76.5,58.6,29.90,NNW,330,0.0,0.0,54,0.00,CLR,SCT,0.00,WeatherDisplay:10.37,2013-08-22 02:31:00,
2013-08-21 19:36:00,76.2,58.9,29.90,NNW,330,0.0,0.0,55,0.00,CLR,SCT,0.00,WeatherDisplay:10.37,2013-08-22 02:36:00,
2013-08-21 19:41:00,76.0,59.2,29.90,NNW,330,0.0,0.0,56,0.00,CLR,SCT,0.00,WeatherDisplay:10.37,2013-08-22 02:41:00,
2013-08-21 19:46:00,75.8,59.0,29.91,NNE,14,0.0,0.0,56,0.00,CLR,SCT,0.00,WeatherDisplay:10.37,2013-08-22 02:46:00,
2013-08-21 19:51:00,75.7,59.4,29.91,East,86,2.7,6.9,57,0.00,CLR,SCT,0.00,WeatherDisplay:10.37,2013-08-22 02:51:00,
2013-08-21 19:56:00,75.5,59.2,29.92,North,2,4.6,11.5,57,0.00,CLR,SCT,0.00,WeatherDisplay:10.37,2013-08-22 02:56:00,
2013-08-21 20:01:00,74.9,58.6,29.92,ENE,69,1.4,6.9,57,0.00,CLR,SCT,0.00,WeatherDisplay:10.37,2013-08-22 03:01:00,
2013-08-21 20:06:00,74.8,59.5,29.93,NNE,18,5.1,10.4,59,0.00,CLR,SCT,0.00,WeatherDisplay:10.37,2013-08-22 03:06:00,
2013-08-21 20:11:00,74.2,58.9,29.93,East,84,1.8,5.8,59,0.00,CLR,SCT,0.00,WeatherDisplay:10.37,2013-08-22 03:11:00,
2013-08-21 20:16:00,74.4,61.0,29.94,ENE,73,4.1,8.1,63,0.00,CLR,SCT,0.00,WeatherDisplay:10.37,2013-08-22 03:16:00,
2013-08-21 20:21:00,73.0,62.2,29.95,ENE,62,0.0,0.0,69,0.00,CLR,SCT,0.00,WeatherDisplay:10.37,2013-08-22 03:21:00,
2013-08-21 20:26:00,71.8,62.7,29.95,NNE,27,0.0,0.0,73,0.00,CLR,SCT,0.00,WeatherDisplay:10.37,2013-08-22 03:26:00,
2013-08-21 20:31:00,71.0,62.3,29.95,NE,36,0.0,0.0,74,0.01,RA,SCT,0.01,WeatherDisplay:10.37,2013-08-22 03:31:00,
2013-08-21 20:36:00,70.3,62.7,29.95,NE,36,0.0,0.0,77,0.01,RA,SCT,0.01,WeatherDisplay:10.37,2013-08-22 03:36:00,
2013-08-21 20:41:00,69.5,63.4,29.95,WNW,292,0.0,0.0,81,0.02,RA,SCT,0.02,WeatherDisplay:10.37,2013-08-22 03:41:00,
2013-08-21 20:46:00,69.0,63.3,29.95,WNW,292,0.0,0.0,82,0.02,RA,SCT,0.02,WeatherDisplay:10.37,2013-08-22 03:46:00,
2013-08-21 20:51:00,68.6,62.2,29.95,WNW,292,0.0,1.2,80,0.02,CLR,SCT,0.02,WeatherDisplay:10.37,2013-08-22 03:51:00,
2013-08-21 20:56:00,68.4,64.0,29.95,WNW,292,0.0,0.0,86,0.03,RA,SCT,0.03,WeatherDisplay:10.37,2013-08-22 03:56:00,
2013-08-21 21:01:00,68.2,63.9,29.95,WNW,289,0.0,0.0,86,0.03,RA,SCT,0.03,WeatherDisplay:10.37,2013-08-22 04:01:00,
2013-08-21 21:02:00,68.1,63.4,29.95,WNW,289,0.0,1.0,85,0.03,RA,SCT,0.03,WeatherDisplay:10.37,2013-08-22 04:02:00,
2013-08-21 21:05:00,68.0,63.3,29.95,West,281,0.1,1.0,85,0.03,CLR,SCT,0.03,WeatherDisplay:10.37,2013-08-22 04:05:00,
2013-08-21 21:07:00,67.9,63.6,29.95,West,274,0.2,3.5,86,0.03,CLR,SCT,0.03,WeatherDisplay:10.37,2013-08-22 04:07:00,
2013-08-21 21:12:00,67.8,63.5,29.95,WNW,290,0.0,0.0,86,0.03,CLR,SCT,0.03,WeatherDisplay:10.37,2013-08-22 04:12:00,
2013-08-21 21:17:00,67.9,63.6,29.95,West,262,1.5,4.6,86,0.03,CLR,SCT,0.03,WeatherDisplay:10.37,2013-08-22 04:17:00,
2013-08-21 21:22:00,68.0,63.3,29.95,WSW,252,0.0,0.0,85,0.04,RA,SCT,0.04,WeatherDisplay:10.37,2013-08-22 04:22:00,
2013-08-21 21:27:00,68.1,63.1,29.95,West,266,0.2,3.5,84,0.03,RA,SCT,0.04,WeatherDisplay:10.37,2013-08-22 04:27:00,
2013-08-21 21:32:00,68.2,63.2,29.95,West,267,0.8,2.3,84,0.03,CLR,SCT,0.04,WeatherDisplay:10.37,2013-08-22 04:32:00,
2013-08-21 21:37:00,68.3,63.3,29.95,West,266,0.0,1.2,84,0.03,CLR,SCT,0.04,WeatherDisplay:10.37,2013-08-22 04:37:00,
2013-08-21 21:42:00,68.3,63.3,29.95,West,274,0.8,3.5,84,0.02,CLR,SCT,0.04,WeatherDisplay:10.37,2013-08-22 04:42:00,
2013-08-21 21:47:00,68.3,62.9,29.94,West,272,1.2,3.5,83,0.02,CLR,SCT,0.04,WeatherDisplay:10.37,2013-08-22 04:47:00,
2013-08-21 21:52:00,68.5,62.4,29.94,West,260,0.7,4.6,81,0.02,CLR,SCT,0.04,WeatherDisplay:10.37,2013-08-22 04:52:00,
2013-08-21 21:57:00,68.9,62.1,29.93,West,263,0.9,5.8,79,0.01,CLR,SCT,0.04,WeatherDisplay:10.37,2013-08-22 04:57:00,
2013-08-21 22:02:00,69.3,61.8,29.94,West,269,0.7,3.5,77,0.01,CLR,SCT,0.04,WeatherDisplay:10.37,2013-08-22 05:02:00,
2013-08-21 22:07:00,69.5,61.6,29.94,WNW,289,1.4,4.6,76,0.01,CLR,SCT,0.04,WeatherDisplay:10.37,2013-08-22 05:07:00,
2013-08-21 22:12:00,69.7,61.4,29.94,West,265,1.0,3.5,75,0.01,CLR,SCT,0.04,WeatherDisplay:10.37,2013-08-22 05:12:00,
2013-08-21 22:18:00,69.9,61.2,29.94,WSW,256,1.2,4.6,74,0.00,CLR,SCT,0.04,WeatherDisplay:10.37,2013-08-22 05:18:00,
2013-08-21 22:23:00,69.8,61.9,29.94,WSW,256,0.0,0.0,76,0.00,CLR,SCT,0.04,WeatherDisplay:10.37,2013-08-22 05:23:00,
2013-08-21 22:28:00,69.6,62.1,29.94,WSW,256,0.0,0.0,77,0.00,CLR,SCT,0.04,WeatherDisplay:10.37,2013-08-22 05:28:00,
2013-08-21 22:33:00,69.5,61.6,29.93,WSW,256,0.0,1.2,76,0.00,CLR,SCT,0.04,WeatherDisplay:10.37,2013-08-22 05:33:00,
2013-08-21 22:38:00,69.5,61.6,29.94,WSW,258,0.0,0.0,76,0.00,CLR,SCT,0.04,WeatherDisplay:10.37,2013-08-22 05:38:00,
2013-08-21 22:43:00,69.5,62.0,29.94,WSW,258,0.0,0.0,77,0.00,CLR,SCT,0.04,WeatherDisplay:10.37,2013-08-22 05:43:00,
2013-08-21 22:48:00,69.3,61.8,29.94,WSW,258,0.0,0.0,77,0.00,CLR,SCT,0.04,WeatherDisplay:10.37,2013-08-22 05:48:00,
2013-08-21 22:53:00,69.2,62.8,29.94,WSW,258,0.0,0.0,80,0.00,CLR,SCT,0.04,WeatherDisplay:10.37,2013-08-22 05:53:00,
2013-08-21 22:58:00,69.1,63.4,29.94,WSW,258,0.0,0.0,82,0.00,CLR,SCT,0.04,WeatherDisplay:10.37,2013-08-22 05:58:00,
2013-08-21 23:03:00,68.9,63.5,29.94,WSW,258,0.0,0.0,83,0.00,CLR,SCT,0.04,WeatherDisplay:10.37,2013-08-22 06:03:00,
2013-08-21 23:08:00,68.8,64.4,29.94,WSW,258,0.0,0.0,86,0.00,CLR,SCT,0.04,WeatherDisplay:10.37,2013-08-22 06:08:00,
2013-08-21 23:13:00,68.7,64.7,29.94,WSW,258,0.0,0.0,87,0.00,CLR,SCT,0.04,WeatherDisplay:10.37,2013-08-22 06:13:00,
2013-08-21 23:18:00,68.6,64.6,29.94,WSW,258,0.0,0.0,87,0.00,CLR,SCT,0.04,WeatherDisplay:10.37,2013-08-22 06:18:00,
2013-08-21 23:23:00,68.5,64.5,29.94,WSW,258,0.0,0.0,87,0.00,CLR,SCT,0.04,WeatherDisplay:10.37,2013-08-22 06:23:00,
2013-08-21 23:28:00,68.4,64.0,29.93,WSW,258,0.0,0.0,86,0.00,CLR,SCT,0.04,WeatherDisplay:10.37,2013-08-22 06:28:00,
2013-08-21 23:33:00,68.3,64.3,29.93,WSW,258,0.0,0.0,87,0.00,CLR,SCT,0.04,WeatherDisplay:10.37,2013-08-22 06:33:00,
2013-08-21 23:38:00,68.2,64.2,29.93,WSW,258,0.0,0.0,87,0.00,CLR,SCT,0.04,WeatherDisplay:10.37,2013-08-22 06:38:00,
2013-08-21 23:43:00,68.1,64.4,29.93,WSW,258,0.0,0.0,88,0.00,CLR,SCT,0.04,WeatherDisplay:10.37,2013-08-22 06:43:00,
2013-08-21 23:48:00,67.8,64.1,29.93,WSW,258,0.0,0.0,88,0.00,CLR,SCT,0.04,WeatherDisplay:10.37,2013-08-22 06:48:00,
2013-08-21 23:53:00,67.5,63.8,29.92,WSW,258,0.0,0.0,88,0.00,CLR,SCT,0.04,WeatherDisplay:10.37,2013-08-22 06:53:00,
2013-08-21 23:58:00,67.3,63.6,29.92,WSW,258,0.0,0.0,88,0.00,CLR,SCT,0.04,WeatherDisplay:10.37,2013-08-22 06:58:00,